Location: PSU-Greenbush Astrophysical Observatory
(37.5140°N, 94.9880°W)
Time: 13:37:22
(UTC-06:00)

Altair - Pass Details

Date: 28 January 2020
Orbit: 1502 x 1682 km, 47.2° (Epoch: 19 February)

Event Time Altitude Azimuth Distance (km) Brightness Sun altitude
Rises 06:20:35 0° 207° (SSW) 4,793 10.0 -13.4°
Reaches altitude 10° 06:23:50 10° 200° (SSW) 3,835 9.5 -12.7°
Maximum altitude 06:32:55 44° 133° (SE) 2,175 8.8 -11.0°
Drops below altitude 10° 06:42:14 10° 66° (ENE) 3,941 10.4 -9.2°
Sets 06:45:37 0° 60° (ENE) 4,937 10.9 -8.6°
